Wetbulb
74.57 74.22 72.91 67.03 59.91 58.26 53.26 56.03 58.50 58.95 59.83 63.96 65.49 63.33 61.18 62.64 59.12 54.34 68.20 70.93 71.89 72.26 73.73 74.51 76.51 77.00 77.24 77.38 78.05 77.89 77.80 77.23 77.44 77.25 77.06 76.99 76.85 77.01 76.72 76.67 76.51 76.21 76.22 76.16 76.18 75.80 75.82 75.55 75.53
73.79 73.01 68.52 62.45 54.87 50.30 52.41 58.81 56.92 60.92 62.91 65.04 65.09 64.28 62.33 60.84 65.94 66.50 67.68 71.24 72.25 72.62 72.79 73.82 76.65 77.15 77.28 77.58 77.82 77.98 77.61 77.55 77.28 77.18 77.21 77.25 76.99 76.92 76.71 76.49 76.16 76.02 76.19 75.81 75.89 75.82 75.52 75.35 75.34
73.96 71.85 62.63 59.19 55.62 51.19 52.99 59.75 61.00 62.84 65.07 64.69 62.83 65.31 63.64 62.13 66.56 67.05 69.82 71.56 72.44 72.10 73.01 74.01 76.77 77.63 77.24 77.32 77.77 78.13 78.01 77.39 77.32 77.35 77.23 77.05 76.84 76.60 76.19 76.02 76.07 75.91 75.94 76.32 75.83 75.68 75.46 75.47 75.00
70.03 67.59 65.03 58.38 55.16 58.28 58.74 61.49 62.99 62.66 64.68 65.06 64.47 61.52 66.20 68.60 67.65 69.61 71.03 71.92 71.54 72.42 73.86 75.69 76.94 77.09 76.96 77.01 77.25 77.44 77.42 77.23 77.11 76.93 76.91 76.92 76.66 76.33 76.14 76.14 76.19 75.86 76.16 76.22 75.42 75.28 75.35 75.33 75.14
71.85 67.16 59.32 56.42 55.88 59.71 61.60 63.95 63.80 62.00 63.05 63.45 64.31 61.37 63.33 68.45 70.48 70.57 70.59 71.48 71.01 71.96 73.45 74.56 77.45 77.59 77.28 77.01 76.97 76.86 77.16 77.25 77.19 77.01 76.86 76.93 76.61 76.12 76.17 75.95 76.09 75.76 76.04 76.14 75.56 75.26 75.01 75.30 75.09
62.44 65.34 56.14 53.30 56.28 60.16 62.92 64.99 64.06 62.77 63.33 63.33 62.70 62.40 63.09 69.44 69.47 70.32 71.10 70.79 72.25 72.92 73.82 74.53 76.54 76.96 77.00 76.81 76.86 76.70 76.84 77.17 77.16 76.99 76.81 77.03 76.68 76.20 75.96 75.74 75.63 75.66 75.85 75.60 75.60 75.07 75.06 74.65 74.60
60.57 58.64 55.62 55.70 56.21 59.11 61.75 65.58 62.71 62.52 62.51 62.47 65.08 60.53 64.19 67.49 70.12 70.99 70.92 71.35 72.37 74.33 74.29 74.24 74.19 75.10 76.82 77.00 76.68 76.57 76.94 77.17 77.19 77.17 77.02 76.85 76.68 76.22 76.01 75.52 75.24 75.35 75.35 75.38 75.27 75.04 74.96 74.90 74.85
64.02 60.88 56.06 57.11 55.92 57.42 64.01 64.34 65.54 63.37 62.88 67.10 66.29 60.20 61.35 67.23 70.41 70.84 71.29 71.26 72.72 73.75 73.96 73.75 73.43 73.88 74.39 74.70 76.71 76.55 76.94 77.32 77.20 77.29 77.18 77.00 76.60 76.26 75.93 77.00 75.96 75.93 75.79 75.35 75.24 75.49 74.56 75.54 75.86
66.63 54.92 52.32 55.41 57.51 58.61 64.66 63.19 66.49 67.39 64.27 65.05 66.21 64.85 66.71 69.00 70.41 69.49 69.70 70.20 71.78 72.93 73.08 73.07 73.36 73.76 74.33 74.13 74.76 76.60 76.82 77.09 77.24 76.75 76.97 76.86 73.87 73.72 74.55 75.64 76.21 75.46 76.41 76.07 75.77 75.49 74.65 75.60 76.31
58.38 52.67 55.16 59.04 59.73 61.10 64.01 63.94 64.25 63.58 62.77 64.13 64.43 66.65 68.21 69.24 69.16 67.98 67.98 68.33 69.41 71.01 72.50 73.24 73.05 73.64 73.58 74.93 73.32 73.31 73.50 74.34 74.18 73.88 73.45 74.00 73.41 72.72 72.68 75.02 76.51 76.23 76.12 75.66 76.01 76.10 73.44 73.05 72.53
59.97 56.17 59.31 60.31 60.59 64.28 63.58 63.47 65.10 62.75 60.18 63.40 62.62 64.44 66.84 67.78 68.44 67.92 68.31 68.82 68.89 70.86 72.30 73.05 73.43 73.58 73.23 73.31 72.28 72.41 72.74 72.60 72.56 72.32 72.30 72.41 73.43 71.96 72.87 73.43 73.48 72.05 73.95 72.96 73.98 73.76 71.71 71.22 71.27
57.10 60.76 61.23 60.60 63.02 63.33 62.75 64.66 63.01 63.54 62.88 66.13 66.07 66.39 66.76 66.64 67.41 67.84 68.19 68.96 69.46 70.33 71.41 72.69 73.47 73.19 72.15 71.69 72.46 72.20 71.85 71.43 71.25 71.28 71.48 71.08 71.63 71.70 71.67 72.13 71.92 71.89 72.02 72.02 72.30 72.19 71.34 71.43 71.89
58.40 59.65 60.31 62.20 61.12 63.90 65.06 63.12 63.08 63.57 66.16 67.15 67.33 66.77 66.16 66.57 67.62 68.79 69.40 70.03 70.47 69.81 71.04 72.10 73.02 72.68 72.10 70.62 71.27 70.30 70.89 71.24 71.27 70.87 71.13 71.63 71.46 71.06 71.20 71.97 72.35 71.86 73.39 72.27 72.07 70.84 70.91 71.25 71.24
58.80 59.63 58.83 60.27 60.18 64.53 62.90 63.03 63.41 64.33 66.67 66.58 66.40 66.05 66.52 66.74 67.68 68.40 69.19 69.25 69.93 70.37 70.89 71.99 72.30 72.44 71.94 70.66 70.07 70.39 70.59 71.38 71.33 71.12 71.45 72.72 71.52 70.71 71.54 71.29 71.53 71.40 72.03 72.41 71.84 71.44 71.00 70.94 72.64
55.30 54.54 56.87 59.45 59.00 59.99 62.34 58.89 60.86 64.71 65.80 65.38 65.75 66.12 66.77 67.12 68.22 68.31 69.40 69.30 70.09 70.58 71.29 71.33 71.97 72.59 72.10 71.24 70.61 70.31 70.84 72.29 72.66 72.31 71.99 72.58 71.65 71.90 71.88 71.57 71.04 71.32 71.86 71.76 72.10 70.58 70.99 69.19 68.67
47.71 47.30 44.03 50.76 56.91 59.49 58.81 52.75 61.14 64.89 64.66 64.14 65.49 65.92 66.37 66.88 68.11 69.03 69.73 69.80 70.37 70.89 70.63 71.41 72.64 71.86 71.84 71.55 71.06 70.86 71.65 73.03 73.08 71.82 71.99 72.39 72.16 72.41 71.52 70.92 70.88 71.83 72.18 72.42 71.15 69.56 67.14 64.76 63.59
42.96 41.26 44.13 47.31 54.73 56.95 56.05 51.71 61.93 64.80 64.22 63.82 64.80 65.44 65.99 66.45 68.00 68.83 69.77 69.83 70.38 70.48 70.04 70.21 71.13 70.87 71.48 71.53 71.72 71.12 71.55 70.45 70.58 71.24 71.84 72.13 72.76 73.19 72.18 70.98 71.08 71.67 71.78 72.01 70.54 68.51 66.59 62.67 61.80
40.80 40.98 43.00 45.12 50.09 55.04 53.32 53.21 61.62 63.50 63.40 62.91 64.10 65.28 65.75 66.15 66.98 68.66 69.48 70.04 70.27 70.09 70.22 70.51 70.90 71.15 71.29 71.88 72.00 70.80 70.06 70.33 71.15 71.11 71.70 71.97 72.70 73.38 72.50 71.47 71.74 71.75 70.76 70.04 68.44 67.16 64.80 62.57 62.96
45.16 43.55 43.72 46.79 52.74 53.89 52.41 53.60 60.38 62.54 62.50 61.90 62.36 63.54 64.58 65.67 67.89 68.96 69.67 70.29 70.03 69.90 69.62 70.66 70.37 71.28 71.31 70.82 70.96 69.78 69.14 69.91 71.14 70.94 71.40 71.56 73.43 73.41 72.59 70.95 71.19 70.57 70.04 69.48 68.00 64.65 62.00 60.93 63.31
44.95 43.93 44.22 46.44 50.08 49.49 51.28 53.37 60.44 61.83 62.01 62.56 62.51 62.94 63.71 64.34 64.96 66.44 68.16 69.67 69.45 68.62 69.16 70.14 70.69 71.04 71.39 71.40 71.79 70.83 70.18 70.53 70.77 71.71 71.27 72.79 73.44 73.77 72.47 70.96 70.87 70.85 69.93 68.47 67.23 63.20 61.04 61.97 62.88
43.54 43.01 44.80 44.53 48.40 51.72 52.52 50.29 55.70 61.39 62.71 63.41 64.05 64.42 64.64 64.42 64.42 64.07 67.10 68.53 69.27 68.24 69.13 70.06 70.68 70.69 71.25 71.40 70.79 70.56 70.33 70.65 70.18 70.31 70.97 72.32 72.72 73.73 72.48 71.57 70.90 70.40 70.37 67.34 63.93 63.11 61.59 61.03 62.69
40.67 47.21 47.55 46.44 44.20 40.45 52.55 43.38 50.03 57.18 59.20 61.11 62.33 63.37 64.16 64.66 65.51 65.62 66.38 67.87 68.62 68.53 70.00 70.49 70.80 70.88 70.96 71.02 70.83 70.46 69.14 68.54 69.30 70.35 70.87 70.92 72.46 73.22 72.53 71.67 70.80 70.58 69.33 66.02 63.95 64.04 61.94 61.05 61.15
45.47 48.92 46.87 46.45 42.99 40.40 45.03 44.44 47.56 54.42 55.03 57.45 60.27 62.40 63.76 64.89 65.39 65.39 65.69 67.58 69.05 69.61 69.80 70.49 70.54 71.06 71.33 71.36 71.37 70.68 69.61 70.21 69.23 69.73 70.34 70.61 71.72 72.55 73.04 71.69 70.45 68.57 68.06 65.74 64.68 64.04 64.25 61.07 60.91
49.58 46.48 43.83 42.87 40.56 36.74 43.74 44.73 45.52 51.39 54.30 56.51 58.58 61.80 63.24 64.20 65.07 65.75 66.43 67.41 68.29 69.73 69.46 70.33 69.58 70.77 71.35 71.41 71.60 71.09 70.28 69.58 68.84 68.02 69.23 69.58 70.82 71.83 72.30 72.04 70.20 67.46 67.28 65.41 64.87 64.17 64.19 64.51 63.31
45.55 39.95 34.93 33.21 34.04 36.14 41.80 41.89 46.04 51.63 57.56 58.44 58.21 59.26 62.77 64.17 64.65 64.97 65.08 65.94 67.11 68.28 68.97 69.75 69.36 70.05 71.46 71.43 71.47 71.44 70.93 70.20 69.66 68.77 69.03 69.15 69.60 69.20 70.88 71.08 69.26 66.38 66.40 66.04 64.88 63.05 63.33 63.60 62.63
42.30 42.57 33.44 29.53 31.03 35.89 40.46 39.22 45.29 54.40 56.55 60.04 61.27 61.13 61.63 63.45 64.34 64.92 65.32 65.65 66.66 67.89 68.60 69.23 69.11 69.71 71.47 71.78 71.53 71.64 71.46 70.99 70.63 69.30 69.04 70.08 70.63 71.05 71.40 71.55 70.03 66.35 66.21 65.93 64.72 64.47 63.39 63.17 62.62
42.03 40.67 43.97 34.91 34.90 34.16 38.34 43.13 49.05 53.09 54.37 56.14 58.87 60.31 60.91 62.16 64.02 64.43 65.56 65.82 66.61 67.24 68.25 69.07 69.39 69.66 71.16 71.76 71.88 71.50 71.54 71.09 70.67 69.39 69.72 70.29 70.92 71.48 70.44 71.14 69.75 66.91 66.07 65.84 64.75 64.00 63.73 63.76 62.16
46.10 43.43 37.83 32.21 32.59 32.22 34.99 39.37 42.53 48.79 52.20 54.17 57.28 59.00 60.99 62.20 63.10 64.53 65.29 65.84 66.84 67.51 68.44 69.39 69.89 69.86 70.72 71.63 72.04 71.81 71.70 71.75 71.40 70.88 69.74 69.74 69.95 70.24 70.11 70.15 69.19 66.89 65.61 66.29 65.36 63.71 63.56 64.21 63.17
41.90 40.99 38.31 39.08 35.48 34.26 31.19 38.34 45.62 49.05 52.57 53.80 57.06 60.11 61.60 62.33 62.51 63.77 64.99 65.91 66.79 67.65 68.02 69.02 69.88 69.78 70.30 71.11 71.35 71.69 71.83 72.07 72.15 71.66 70.98 70.11 69.41 69.00 69.07 69.74 68.82 67.30 65.16 66.63 65.99 64.67 64.02 63.20 63.36
47.23 43.54 38.95 36.05 35.15 35.61 39.99 39.21 46.88 50.87 51.09 53.32 55.88 59.46 62.19 63.45 63.54 63.61 64.36 65.54 66.23 66.86 67.59 68.80 69.88 69.89 70.27 71.52 71.43 71.28 71.41 71.17 71.50 72.35 72.04 71.06 69.35 69.27 68.77 69.36 68.65 68.02 66.86 65.12 66.66 65.39 65.51 63.98 62.77
MSLP
1009.88 1010.24 1010.47 1010.65 1011.20 1010.32 1009.57 1008.45 1007.67 1007.83 1008.28 1008.50 1008.77 1009.19 1010.29 1010.98 1011.54 1013.09 1013.29 1013.84 1014.05 1014.25 1014.28 1014.39 1014.75 1014.74 1014.97 1015.24 1015.35 1015.43 1015.55 1015.68 1015.86 1015.99 1016.10 1016.19 1016.42 1016.65 1016.86 1016.87 1016.86 1016.90 1016.85 1016.78 1016.86 1016.84 1016.91 1017.07 1017.13
1010.24 1010.62 1010.56 1010.42 1010.54 1010.06 1008.93 1007.79 1007.47 1007.73 1008.11 1008.39 1008.85 1009.73 1010.37 1011.33 1011.87 1012.84 1013.45 1013.80 1013.92 1014.25 1014.57 1014.63 1014.90 1015.11 1015.27 1015.56 1015.78 1015.84 1015.87 1016.08 1016.25 1016.29 1016.40 1016.51 1016.73 1016.90 1016.95 1016.99 1017.08 1017.10 1016.99 1016.98 1016.96 1017.00 1016.99 1017.13 1017.19
1010.44 1010.36 1010.79 1010.82 1010.55 1009.71 1008.45 1007.31 1007.36 1007.93 1008.14 1008.32 1009.13 1009.75 1010.74 1011.73 1012.33 1012.99 1013.21 1013.70 1014.11 1014.50 1014.72 1014.75 1015.07 1015.26 1015.49 1015.81 1016.02 1016.07 1016.19 1016.29 1016.38 1016.56 1016.62 1016.73 1016.96 1017.07 1017.12 1017.22 1017.27 1017.16 1017.06 1017.06 1016.98 1016.95 1017.11 1017.27 1017.26
1009.78 1010.63 1010.94 1010.81 1010.14 1008.73 1007.67 1007.06 1007.20 1007.72 1008.11 1008.48 1009.12 1010.39 1011.20 1011.67 1012.27 1012.71 1013.50 1013.87 1014.37 1014.67 1014.87 1015.03 1015.21 1015.39 1015.64 1015.99 1016.21 1016.26 1016.37 1016.41 1016.63 1016.72 1016.81 1016.92 1017.07 1017.16 1017.25 1017.32 1017.25 1017.10 1017.10 1017.11 1017.04 1017.15 1017.27 1017.42 1017.45
1009.20 1010.20 1010.87 1010.74 1009.44 1008.04 1007.08 1007.05 1007.40 1007.70 1008.21 1008.78 1009.09 1010.82 1011.55 1012.24 1012.32 1013.13 1013.69 1014.17 1014.50 1014.85 1015.00 1015.24 1015.37 1015.55 1015.80 1016.12 1016.33 1016.50 1016.50 1016.60 1016.81 1016.94 1016.96 1017.10 1017.25 1017.40 1017.47 1017.39 1017.29 1017.22 1017.19 1017.16 1017.18 1017.28 1017.44 1017.54 1017.49
1010.05 1011.24 1011.59 1010.79 1008.98 1007.73 1006.87 1007.13 1007.36 1007.86 1008.74 1009.26 1010.03 1010.68 1012.19 1012.52 1012.80 1013.34 1013.91 1014.36 1014.52 1014.91 1015.14 1015.31 1015.51 1015.68 1015.89 1016.17 1016.44 1016.59 1016.59 1016.79 1017.03 1017.02 1017.11 1017.25 1017.43 1017.57 1017.52 1017.41 1017.34 1017.30 1017.20 1017.25 1017.35 1017.42 1017.55 1017.57 1017.49
1009.85 1011.29 1010.94 1010.44 1008.51 1007.31 1006.88 1007.11 1007.29 1007.82 1008.50 1009.25 1009.59 1010.88 1012.41 1012.94 1013.08 1013.44 1014.01 1014.51 1014.78 1015.00 1015.26 1015.40 1015.63 1015.79 1016.01 1016.32 1016.53 1016.61 1016.76 1016.92 1017.07 1017.09 1017.28 1017.33 1017.58 1017.62 1017.56 1017.50 1017.42 1017.36 1017.27 1017.35 1017.39 1017.39 1017.60 1017.65 1017.46
1010.15 1010.63 1010.21 1009.53 1007.92 1007.13 1006.51 1007.09 1007.33 1007.53 1008.22 1008.86 1009.58 1010.61 1011.79 1012.34 1012.78 1013.60 1014.14 1014.71 1015.10 1015.34 1015.35 1015.50 1015.71 1015.93 1016.19 1016.41 1016.48 1016.65 1016.85 1017.03 1017.10 1017.17 1017.30 1017.44 1017.57 1017.51 1017.53 1017.54 1017.52 1017.42 1017.34 1017.42 1017.39 1017.38 1017.64 1017.68 1017.53
1009.79 1010.13 1009.09 1007.71 1007.29 1006.70 1006.58 1006.91 1007.33 1007.48 1008.06 1008.63 1008.92 1009.49 1010.43 1011.75 1012.80 1013.66 1014.39 1015.03 1015.35 1015.50 1015.58 1015.58 1015.84 1016.09 1016.25 1016.45 1016.50 1016.70 1016.85 1017.00 1017.09 1017.17 1017.31 1017.51 1017.65 1017.66 1017.62 1017.60 1017.55 1017.35 1017.29 1017.48 1017.42 1017.42 1017.61 1017.66 1017.53
1009.43 1009.12 1006.91 1005.61 1005.45 1005.78 1006.28 1006.51 1006.82 1007.51 1008.25 1008.60 1008.98 1009.55 1010.85 1011.73 1012.66 1013.38 1014.14 1014.74 1015.18 1015.35 1015.62 1015.76 1015.86 1016.07 1016.29 1016.40 1016.55 1016.78 1016.88 1017.04 1017.18 1017.29 1017.47 1017.58 1017.76 1017.84 1017.60 1017.58 1017.48 1017.32 1017.36 1017.21 1017.38 1017.48 1017.63 1017.80 1017.81
1007.99 1007.10 1005.17 1004.97 1004.56 1004.42 1005.43 1006.53 1006.51 1007.12 1008.09 1007.86 1008.58 1009.65 1010.70 1011.61 1012.54 1013.14 1013.83 1014.30 1014.55 1014.94 1015.41 1015.65 1015.84 1015.99 1016.32 1016.38 1016.59 1016.78 1016.94 1017.13 1017.30 1017.46 1017.55 1017.71 1017.86 1017.88 1017.75 1017.71 1017.81 1017.72 1017.61 1017.56 1017.50 1017.52 1017.80 1018.03 1017.86
1007.04 1004.96 1004.74 1004.15 1004.07 1004.31 1004.61 1005.78 1006.34 1006.62 1006.22 1006.94 1007.72 1008.57 1009.96 1011.14 1011.95 1012.67 1013.42 1013.98 1014.41 1014.79 1014.99 1015.36 1015.52 1015.90 1016.19 1016.37 1016.45 1016.66 1016.96 1017.14 1017.30 1017.49 1017.61 1017.72 1017.88 1017.84 1017.73 1017.69 1017.78 1017.83 1017.79 1017.74 1017.71 1017.69 1017.74 1017.88 1017.86
1006.06 1003.89 1003.89 1004.09 1003.96 1003.83 1004.48 1005.12 1005.41 1006.10 1006.36 1007.48 1008.47 1009.37 1010.02 1010.64 1011.40 1012.16 1012.69 1013.32 1013.88 1014.36 1014.64 1014.93 1015.33 1015.74 1015.83 1016.24 1016.45 1016.69 1016.88 1017.00 1017.01 1017.26 1017.49 1017.58 1017.76 1017.84 1017.65 1017.64 1017.82 1017.77 1017.59 1017.77 1017.76 1017.67 1017.82 1017.77 1017.72
1004.40 1003.95 1003.43 1003.09 1003.92 1003.99 1004.51 1005.00 1005.55 1006.19 1006.53 1007.49 1008.25 1009.06 1009.89 1010.27 1010.84 1011.66 1012.43 1013.06 1013.41 1013.82 1014.17 1014.59 1014.97 1015.21 1015.53 1016.00 1016.29 1016.44 1016.60 1016.66 1016.84 1016.92 1017.13 1017.31 1017.48 1017.53 1017.53 1017.50 1017.61 1017.70 1017.62 1017.45 1017.60 1017.75 1017.68 1017.75 1017.61
1004.21 1003.95 1003.35 1002.92 1002.94 1003.80 1004.47 1005.21 1004.90 1005.20 1006.32 1007.23 1007.74 1008.63 1009.51 1009.99 1010.57 1011.06 1011.48 1012.15 1012.61 1013.09 1013.65 1014.20 1014.51 1014.72 1015.33 1015.70 1015.90 1016.15 1016.14 1016.23 1016.27 1016.39 1016.73 1016.96 1017.15 1017.43 1017.55 1017.37 1017.63 1017.61 1017.45 1017.48 1017.73 1017.85 1017.80 1017.95 1017.78
1004.53 1004.30 1003.75 1002.34 1002.93 1002.89 1003.42 1004.17 1004.64 1005.08 1006.06 1007.01 1007.81 1008.15 1009.03 1009.51 1009.88 1010.41 1010.83 1011.29 1011.98 1012.69 1013.22 1013.67 1014.05 1014.44 1014.91 1015.30 1015.45 1015.63 1015.69 1015.62 1015.63 1015.95 1016.27 1016.57 1016.89 1017.19 1017.27 1017.43 1017.38 1017.33 1017.33 1017.55 1017.67 1017.98 1018.15 1018.07 1018.04
1005.28 1004.73 1004.01 1002.99 1002.39 1002.53 1003.03 1003.46 1003.90 1004.67 1005.61 1006.56 1007.20 1007.67 1008.34 1009.14 1009.68 1009.83 1010.20 1010.74 1011.42 1011.96 1012.65 1013.20 1013.61 1013.94 1014.47 1014.86 1015.04 1015.24 1015.29 1015.43 1015.42 1015.68 1015.94 1016.14 1016.51 1016.86 1017.09 1017.17 1017.21 1017.26 1017.41 1017.55 1017.80 1018.13 1018.26 1018.44 1018.38
1005.33 1004.95 1004.02 1003.18 1002.49 1002.58 1002.85 1002.90 1003.70 1004.58 1005.30 1005.79 1006.43 1007.14 1007.81 1008.33 1008.30 1008.86 1009.43 1010.11 1010.84 1011.44 1012.04 1012.54 1012.91 1013.34 1013.98 1014.46 1014.83 1015.14 1015.45 1015.13 1015.21 1015.37 1015.68 1015.85 1016.13 1016.45 1016.79 1016.87 1017.11 1017.22 1017.59 1017.82 1018.01 1018.25 1018.47 1018.60 1018.67
1004.75 1004.46 1004.01 1003.16 1002.46 1002.63 1003.00 1003.31 1003.22 1004.02 1005.33 1005.66 1006.01 1006.43 1007.06 1007.39 1007.32 1008.26 1008.78 1009.45 1010.25 1011.04 1011.58 1012.09 1012.57 1012.80 1013.44 1014.21 1014.78 1015.22 1015.40 1015.28 1015.46 1015.35 1015.37 1015.66 1015.91 1016.19 1016.48 1016.79 1017.12 1017.22 1017.59 1017.87 1018.09 1018.36 1018.53 1018.77 1018.77
1004.61 1004.38 1003.54 1002.83 1002.70 1002.85 1002.86 1003.50 1003.67 1003.85 1003.72 1003.58 1004.51 1005.42 1005.85 1006.56 1007.37 1007.90 1008.35 1008.79 1009.33 1009.91 1010.57 1011.33 1011.76 1012.16 1012.61 1013.24 1013.81 1014.37 1014.60 1014.66 1014.74 1014.91 1015.23 1015.44 1015.67 1015.93 1016.27 1016.60 1017.14 1017.30 1017.63 1017.86 1018.05 1018.23 1018.81 1018.95 1018.93
1003.74 1003.70 1003.19 1002.97 1003.14 1002.83 1003.20 1003.79 1004.11 1004.01 1004.47 1004.64 1004.67 1004.48 1004.89 1005.25 1005.78 1006.67 1007.42 1007.94 1008.38 1009.00 1009.43 1010.04 1010.67 1011.32 1011.90 1012.41 1013.28 1013.97 1014.29 1014.49 1014.74 1014.98 1015.23 1015.29 1015.37 1015.57 1015.99 1016.36 1016.77 1017.16 1017.46 1017.68 1017.99 1018.17 1018.61 1019.00 1019.06
1003.06 1002.68 1003.13 1003.09 1003.42 1003.53 1002.99 1004.17 1004.02 1003.94 1003.99 1004.06 1004.14 1004.32 1004.50 1004.70 1005.08 1005.62 1006.29 1006.66 1007.16 1007.80 1008.65 1009.25 1009.89 1010.54 1011.24 1011.86 1012.52 1013.05 1013.38 1013.89 1014.22 1014.46 1014.59 1014.85 1014.98 1015.16 1015.55 1015.97 1016.46 1016.68 1017.00 1017.45 1017.80 1018.11 1018.45 1018.77 1019.20
1002.03 1002.53 1002.98 1003.32 1003.75 1004.04 1003.78 1004.28 1003.14 1003.06 1003.60 1003.11 1002.89 1003.04 1003.40 1003.66 1004.05 1004.56 1004.98 1005.55 1005.73 1006.79 1007.71 1008.47 1009.17 1009.85 1010.48 1011.20 1011.61 1012.37 1012.76 1013.06 1013.58 1014.02 1014.37 1014.60 1014.78 1014.87 1015.12 1015.59 1016.05 1016.51 1016.87 1017.11 1017.65 1018.08 1018.34 1018.59 1018.97
1001.86 1002.54 1003.28 1003.66 1004.29 1004.20 1003.22 1003.83 1002.38 1002.23 1001.27 1001.37 1001.49 1001.60 1001.85 1002.47 1003.02 1003.42 1003.56 1004.33 1005.38 1006.17 1006.97 1007.69 1008.53 1009.13 1009.69 1010.31 1010.82 1011.37 1011.90 1012.55 1013.32 1013.90 1014.16 1014.37 1014.46 1014.72 1014.91 1015.22 1015.67 1015.93 1016.51 1016.96 1017.42 1017.80 1018.14 1018.37 1018.70
1001.67 1003.13 1004.55 1004.82 1004.71 1003.07 1002.65 1002.87 1001.04 999.96 999.83 999.59 999.68 999.70 1000.18 1000.81 1001.74 1002.29 1002.88 1003.71 1004.45 1005.33 1005.94 1006.84 1007.66 1008.39 1008.99 1009.65 1010.14 1010.59 1011.13 1011.76 1012.39 1013.08 1013.57 1013.93 1014.29 1014.51 1014.78 1015.05 1015.43 1015.91 1016.18 1016.50 1017.00 1017.59 1018.01 1018.28 1018.55
1001.08 1001.95 1003.24 1004.14 1004.10 1003.31 1002.57 1000.66 998.52 998.39 998.03 998.06 997.99 997.90 998.72 999.45 1000.06 1000.81 1001.37 1002.05 1002.74 1003.71 1004.81 1005.66 1006.60 1007.36 1008.21 1008.82 1009.32 1009.82 1010.34 1010.92 1011.61 1012.27 1012.74 1013.12 1013.47 1013.71 1014.12 1014.49 1014.87 1015.33 1015.87 1016.19 1016.68 1017.22 1017.73 1018.04 1018.27
1000.22 1001.06 1001.75 1003.39 1004.09 1003.55 1001.65 999.48 998.25 997.62 997.47 997.40 997.50 997.84 997.86 998.19 998.63 999.26 999.85 1000.81 1001.50 1002.51 1003.38 1004.30 1005.29 1006.19 1007.05 1007.72 1008.41 1009.13 1009.68 1010.28 1010.95 1011.48 1011.89 1012.31 1012.75 1013.17 1013.57 1014.00 1014.45 1015.02 1015.49 1015.84 1016.41 1016.94 1017.48 1017.81 1018.15
998.23 999.89 1001.58 1002.91 1003.27 1002.75 1001.02 999.10 997.55 997.08 997.08 996.84 996.66 996.94 996.76 996.91 997.48 997.83 998.61 999.20 1000.36 1001.39 1002.32 1003.52 1004.34 1004.95 1005.62 1006.50 1007.30 1008.04 1008.74 1009.46 1010.13 1010.82 1011.22 1011.52 1012.01 1012.52 1013.02 1013.59 1014.07 1014.70 1015.31 1015.65 1016.17 1016.66 1017.04 1017.52 1017.81
997.83 998.71 999.81 1000.58 1001.30 1001.24 1000.39 997.43 996.61 996.49 996.05 996.26 995.87 995.68 995.44 995.59 995.79 996.41 997.16 998.14 998.94 999.90 1001.22 1002.24 1003.35 1004.37 1005.11 1005.77 1006.51 1007.25 1007.97 1008.75 1009.55 1010.09 1010.43 1010.70 1011.32 1011.90 1012.45 1012.95 1013.61 1014.28 1014.84 1015.30 1015.79 1016.12 1016.65 1017.16 1017.44
996.60 997.40 998.61 999.45 999.80 999.34 998.44 996.59 995.15 994.79 995.14 995.35 995.19 995.10 994.81 994.61 994.75 995.48 996.23 996.93 998.00 999.11 1000.20 1001.22 1002.24 1003.25 1003.84 1004.54 1005.36 1006.15 1006.87 1007.87 1008.64 1009.10 1009.63 1010.03 1010.47 1011.12 1011.68 1012.36 1013.09 1013.69 1014.17 1014.70 1015.15 1015.60 1016.04 1016.56 1017.06
Wind_Speed
11 8 2 0 1 0 2 3 2 5 3 0 2 5 8 5 2 4 9 6 9 7 7 13 18 19 19 17 16 17 16 16 16 16 15 14 13 13 11 10 10 8 8 8 8 8 8 7 9
8 7 1 1 3 3 4 2 3 4 9 12 11 8 7 5 6 12 9 10 10 8 5 8 17 18 18 17 16 15 17 16 15 15 14 13 11 11 9 9 8 6 7 7 6 6 6 6 6
9 2 3 3 2 2 3 3 7 8 9 4 6 7 4 4 10 10 11 14 10 7 5 9 17 17 18 17 15 14 15 15 15 14 13 12 10 9 8 8 6 5 5 6 5 4 4 5 6
5 1 1 2 4 5 4 4 8 11 5 7 13 9 6 11 8 8 15 14 10 9 7 14 18 19 17 16 15 15 14 14 13 13 12 11 9 8 7 7 6 3 3 5 5 4 4 5 5
1 3 3 4 7 5 1 6 7 6 6 11 5 7 8 4 15 17 14 13 11 7 5 11 16 17 17 16 15 14 13 13 12 11 11 9 8 7 6 5 4 2 2 4 4 4 4 5 4
4 3 1 3 6 6 5 8 8 10 12 14 13 10 3 14 17 14 13 11 10 9 6 9 16 17 16 16 14 13 13 12 11 11 10 9 8 6 5 4 3 1 1 2 3 3 3 3 3
5 6 5 4 6 4 5 7 8 13 12 8 9 6 7 12 14 15 12 11 10 8 7 7 9 13 17 15 14 13 12 12 11 10 9 8 7 6 5 3 2 1 0 1 2 1 2 2 2
4 2 2 7 5 3 10 10 12 11 7 13 12 7 12 17 17 14 12 11 9 8 7 6 6 6 6 8 15 14 12 12 11 10 9 9 8 7 5 3 3 4 4 2 2 2 2 3 5
2 1 4 6 10 5 11 7 10 3 13 3 5 9 17 21 19 15 12 10 8 8 7 5 6 5 6 6 9 12 13 13 12 10 11 8 3 3 4 4 5 3 5 5 4 2 4 4 7
5 4 7 5 9 16 16 15 15 6 13 1 9 15 21 21 19 18 15 13 13 13 9 8 6 6 6 6 5 5 5 4 4 4 5 4 3 3 5 6 5 5 4 3 3 4 2 5 0
5 8 4 5 7 19 22 13 7 16 10 7 21 23 23 20 17 17 15 15 16 13 10 10 8 7 7 6 4 3 3 2 3 5 4 3 1 3 3 2 2 3 3 2 3 1 1 3 2
5 14 13 5 5 18 19 14 5 18 10 17 24 28 26 22 19 17 16 15 14 14 14 12 11 10 8 4 5 4 3 3 3 4 5 3 2 4 4 3 3 3 2 3 3 1 2 1 3
9 20 7 4 4 17 16 19 13 21 8 17 20 23 23 21 20 18 17 15 14 15 15 14 13 11 10 6 4 3 4 4 4 4 5 4 3 4 3 2 2 3 2 3 3 1 1 3 1
6 16 17 9 11 19 14 13 10 16 19 20 23 24 22 22 22 18 16 15 15 14 15 14 14 13 10 8 6 6 4 5 4 4 4 6 4 4 3 4 4 2 3 3 2 1 1 3 3
7 8 6 8 6 12 14 10 19 15 22 22 24 22 22 21 19 20 19 18 17 15 14 14 14 12 10 10 7 6 6 6 6 6 6 6 6 5 5 3 3 3 3 4 2 1 1 2 2
3 2 2 8 8 7 17 20 16 22 24 22 21 21 21 22 22 20 19 19 17 14 15 14 13 13 11 10 7 6 6 7 7 5 4 7 6 6 4 4 4 2 2 2 3 2 0 1 2
4 4 6 9 9 6 10 5 12 22 22 22 21 21 20 19 19 20 20 18 17 16 15 15 14 14 12 10 6 6 6 5 4 4 4 6 7 6 5 4 3 3 2 2 2 1 1 1 2
6 4 5 6 4 8 7 6 19 21 22 23 22 21 20 20 25 22 20 18 17 16 15 16 14 14 13 9 7 3 3 3 3 4 4 6 6 7 5 4 3 3 3 2 1 2 1 1 1
4 3 5 3 1 2 4 7 21 22 18 21 20 20 21 23 23 21 19 19 17 15 16 16 15 14 11 6 6 3 4 4 3 4 6 6 5 6 6 4 3 4 4 3 3 2 1 1 1
6 7 14 3 7 4 6 10 19 24 27 28 25 22 22 20 16 19 19 20 19 19 18 17 17 16 13 10 9 5 4 3 3 4 5 6 7 8 6 6 5 5 3 3 4 3 1 1 1
7 11 11 9 2 3 5 2 12 20 12 13 18 21 21 22 23 18 22 22 19 20 21 20 19 18 15 14 6 2 3 2 2 2 3 5 7 7 7 6 5 5 4 4 4 4 4 2 1
9 7 7 5 4 4 6 5 7 17 18 16 16 18 20 21 20 18 20 22 22 21 18 19 19 18 15 14 12 14 7 6 4 4 4 4 6 8 7 7 6 6 4 5 5 4 3 3 2
11 6 6 3 4 1 5 1 7 17 19 21 20 22 22 22 21 22 22 23 24 21 19 18 19 18 17 15 16 12 9 7 3 3 6 5 5 7 8 7 7 6 5 5 6 5 4 3 3
4 3 4 1 3 6 16 8 8 13 25 24 20 23 25 23 23 23 24 20 19 18 18 18 19 18 17 17 18 17 16 10 6 4 5 4 4 5 7 8 7 6 6 6 5 5 6 5 3
6 8 4 3 4 10 9 6 15 10 21 26 25 26 27 25 24 23 22 20 19 20 21 18 19 19 19 19 18 17 16 15 13 10 6 6 4 3 6 7 7 5 6 6 6 5 5 5 4
9 14 9 7 4 6 4 11 10 15 11 19 25 26 25 24 23 25 25 23 22 23 22 21 21 20 19 19 19 16 16 11 10 9 6 6 6 7 9 9 9 7 7 7 6 4 4 5 4
7 12 13 3 2 3 6 9 5 9 10 10 14 14 22 24 25 26 25 22 22 22 24 24 22 22 20 21 17 16 14 14 11 10 9 7 7 7 9 11 10 8 8 8 7 5 6 5 5
15 9 4 2 11 13 5 8 8 11 17 11 13 13 20 23 23 24 23 23 20 20 20 21 22 24 22 22 18 16 16 15 12 10 11 9 8 9 10 10 10 8 8 8 8 5 5 6 4
5 8 3 7 7 7 3 12 8 10 13 13 15 17 21 23 24 24 22 20 23 21 20 22 21 21 20 19 18 17 15 14 12 12 11 12 10 10 10 11 11 10 10 9 9 7 7 7 6
15 11 9 7 13 8 13 12 2 18 14 11 11 13 18 22 22 19 21 20 19 20 19 21 21 21 21 20 19 19 17 14 14 14 12 12 13 11 11 11 11 11 11 10 11 10 8 9 8
Wind_Direction
152 148 167 225 352 99 313 270 134 111 86 280 77 114 108 45 58 144 143 165 128 123 131 140 140 134 127 123 119 117 117 117 115 115 116 112 109 104 105 105 97 91 84 80 86 81 81 96 117
139 157 338 308 67 31 294 263 149 77 132 117 95 106 50 73 71 121 126 151 137 133 128 131 136 134 130 126 125 128 125 124 121 116 117 114 112 111 112 106 100 99 95 91 84 81 85 79 99
156 333 18 42 41 213 240 198 100 121 146 94 108 73 70 90 111 132 129 139 135 128 128 142 139 134 134 131 132 129 128 125 121 123 121 120 120 119 121 116 114 103 94 96 82 84 80 80 78
174 30 51 47 310 269 265 147 126 143 105 65 107 75 89 117 134 133 141 138 137 138 149 146 144 142 141 138 135 131 130 124 129 132 128 133 132 134 139 133 127 117 93 90 80 63 54 60 71
148 32 343 343 295 261 238 139 132 129 88 118 94 94 99 109 114 129 140 146 145 140 155 148 150 148 147 146 143 143 136 139 142 137 141 144 145 148 144 141 138 122 66 77 77 70 54 54 55
78 72 320 280 284 292 128 159 147 100 103 105 102 103 67 126 131 143 150 151 150 147 149 160 155 153 155 154 151 152 151 152 150 152 152 158 164 163 164 167 167 151 66 60 66 81 78 85 87
121 136 193 225 277 255 152 175 149 134 136 121 139 88 123 141 149 152 151 149 152 151 156 155 159 165 163 164 160 163 161 162 165 163 165 181 180 187 195 193 204 232 310 73 81 127 116 110 117
104 101 231 178 245 271 149 175 160 148 129 123 144 156 164 168 158 151 147 148 153 160 161 153 159 162 165 171 172 172 173 175 175 176 185 193 200 211 219 220 278 266 248 204 186 218 140 120 164
123 108 218 206 182 175 154 154 164 123 138 174 177 143 154 154 150 146 145 150 159 168 171 158 161 161 164 163 184 182 186 188 187 194 203 211 209 249 277 269 245 259 236 213 188 193 85 116 178
158 194 237 192 150 166 178 170 168 132 159 150 103 120 148 152 154 156 160 167 174 176 179 177 168 169 159 175 195 179 200 190 195 207 217 213 210 242 268 257 257 254 208 247 190 191 44 91 61
199 225 259 200 184 164 173 190 177 144 187 188 151 147 159 162 165 164 171 175 180 178 178 185 178 173 173 185 186 188 204 196 206 215 228 241 178 256 277 287 315 313 335 290 308 305 91 132 180
249 245 244 343 155 166 173 162 170 175 190 167 158 159 162 169 173 173 177 178 181 180 185 184 184 180 188 180 192 195 199 204 213 205 222 236 217 246 245 222 207 237 249 259 262 299 311 159 161
238 258 275 188 143 178 156 181 182 199 150 151 151 161 169 172 177 181 183 182 180 186 187 188 184 187 193 189 186 189 205 208 220 201 199 214 228 244 241 243 183 230 217 200 215 256 313 327 350
229 244 258 274 167 172 171 192 159 209 153 158 162 170 177 177 184 183 181 186 188 187 192 186 190 193 190 196 184 202 207 211 209 218 202 207 207 243 243 188 201 239 223 181 174 232 331 295 283
247 266 298 264 246 169 194 214 199 177 163 167 171 172 178 189 184 187 188 187 187 192 188 188 190 190 191 197 196 198 211 207 219 220 196 201 197 199 208 161 197 215 210 156 143 97 351 326 17
261 81 284 277 178 229 178 212 200 166 166 176 177 174 183 193 187 192 193 190 189 188 189 189 191 191 192 197 198 206 208 216 216 203 193 198 195 187 191 189 212 206 182 157 140 119 39 24 51
343 219 222 301 179 171 180 198 167 169 174 176 180 182 188 190 197 196 197 191 187 189 187 192 193 190 192 199 195 209 202 199 200 191 191 193 184 190 189 198 203 187 166 148 141 103 160 358 343
198 202 244 234 276 182 195 184 162 172 180 181 182 186 189 195 200 198 196 193 188 189 189 193 192 189 189 191 196 204 199 210 197 202 201 195 186 181 190 196 188 164 152 159 152 137 61 159 263
190 230 248 133 207 75 264 177 176 176 185 187 188 185 192 204 200 196 195 192 189 189 190 191 195 194 182 178 184 188 206 184 193 201 204 198 191 189 183 185 182 186 183 183 173 134 163 319 15
190 226 259 300 213 191 221 203 187 179 195 192 188 190 194 195 186 200 197 195 190 190 191 193 196 193 187 187 193 190 180 203 171 181 190 192 184 197 180 177 191 181 168 176 181 155 149 235 105
198 201 241 241 16 220 118 1 179 205 221 199 204 200 200 195 191 182 194 199 198 195 193 193 194 194 193 185 173 110 95 77 129 169 182 199 194 197 179 185 179 191 178 185 187 172 160 160 4
239 194 247 256 58 237 124 243 195 199 212 210 204 206 207 206 207 199 193 195 198 199 195 194 193 195 194 183 186 199 188 188 194 186 199 194 196 189 181 177 183 186 187 179 179 172 145 127 165
243 183 196 199 203 158 222 122 248 175 209 216 207 208 210 209 204 205 200 202 202 194 191 191 190 194 191 189 194 196 198 201 176 168 185 200 201 192 184 175 184 186 190 175 166 160 162 157 145
178 309 28 38 138 238 247 168 245 195 202 211 211 210 209 206 209 209 213 200 201 198 191 189 188 197 192 192 195 196 198 192 188 180 198 195 191 190 188 177 186 188 178 169 176 178 176 174 141
132 107 272 283 198 231 220 193 229 204 208 210 204 211 209 204 205 210 210 202 196 196 194 190 190 195 193 194 196 196 199 196 199 194 197 174 177 175 193 176 185 185 178 176 167 167 177 176 169
194 185 161 198 207 233 153 232 233 215 225 215 217 211 208 203 203 207 208 204 199 195 194 190 190 194 191 193 198 198 199 198 200 197 192 195 189 197 184 190 189 179 169 172 171 177 176 180 189
193 196 192 134 184 15 226 277 304 211 235 237 214 202 208 205 201 206 209 206 201 196 194 193 191 195 192 195 197 197 197 199 194 194 196 189 189 193 187 189 184 175 179 178 175 178 183 181 189
187 172 158 355 219 239 253 249 220 193 216 224 230 201 211 208 203 208 207 205 201 200 199 195 195 194 191 192 195 196 198 200 193 189 194 189 189 192 182 184 185 176 182 182 178 180 182 186 186
179 199 201 158 159 212 211 252 182 205 211 211 218 210 210 204 205 205 209 203 202 197 190 196 194 195 196 193 195 198 200 199 193 195 196 192 184 189 184 184 184 182 186 184 187 189 181 193 191
205 197 159 157 222 246 233 233 331 191 202 204 217 211 219 215 214 203 204 204 199 196 190 192 193 194 198 194 192 198 197 194 195 203 199 192 193 191 186 183 185 188 192 190 194 194 192 194 198